{"data":{"norad_id":58981,"epoch":"2026-09-20T02:29:06.759744Z","epoch_age_seconds":189944,"freshness":"STALE","line1":"1 58981U 24031S   26263.10355046  .00002692  00000+0  90837-4 0  9993","line2":"2 58981  53.1583 109.7754 0001191  64.1393 295.9732 15.34383420146336","mean_motion":15.3438342,"eccentricity":0.0001191,"inclination_deg":53.1583,"raan_deg":109.7754,"arg_perigee_deg":64.1393,"mean_anomaly_deg":295.9732,"bstar":9.0837e-5,"rev_number":14633,"period_min":93.848772166738,"perigee_km":461.9377699631,"apogee_km":463.56726984675,"semimajor_km":6840.8895199049,"source":"CELESTRAK","updated_at":"2026-09-21T09:00:34.021960Z"}}